This demonstration page uses our WeatherBlox Daily Observations layout. Learn more.

Left ArrowRight Arrow

30.21309, -93.2044

Hourly Observations for July 31, 2021

Temp ( °F °C ) Dew Point ( °F °C ) Humidity (%) Winds ( mph kmh ) Pressure ( in mb ) Visibility ( mi km ) Precip ( " mm )
12:15 am 00:15 Clear 84 29 76 24.6 77 77 WSW 7 11 30.04 1017 10 16 0.00 0.00
12:35 am 00:35 Clear 84 28.9 77 24.8 79 79 SW 7 11 30.04 1017 10 16 0.00 0.00
12:55 am 00:55 Clear 84 28.7 77 24.8 79 79 WSW 6 9 30.04 1017 10 16 0.00 0.00
1:15 am 01:15 Clear 84 28.7 77 24.9 80 80 W 5 7 30.04 1017 10 16 0.00 0.00
1:35 am 01:35 Clear 83 28.6 77 25 81 81 WSW 7 11 30.03 1017 10 16 0.00 0.00
1:55 am 01:55 Clear 83 28.6 77 25 81 81 WSW 6 9 30.03 1017 10 16 0.00 0.00
2:15 am 02:15 Clear 83 28.4 77 25 82 82 SW 3 6 30.03 1017 10 16 0.00 0.00
2:35 am 02:35 Clear 83 28.3 77 25.1 83 83 SW 3 6 30.03 1017 10 16 0.00 0.00
2:55 am 02:55 Clear 83 28.1 77 25.1 84 84 WSW 5 7 30.03 1017 10 16 0.00 0.00
3:15 am 03:15 Partly Cloudy 83 28.2 77 25 83 83 WSW 7 11 30.03 1017 10 16 0.00 0.00
3:35 am 03:35 Mostly Cloudy 83 28.3 77 24.9 82 82 WSW 6 9 30.03 1017 10 16 0.00 0.00
3:55 am 03:55 Partly Cloudy 83 28.2 77 24.9 82 82 W 5 7 30.03 1017 10 16 0.00 0.00
4:15 am 04:15 Clear 83 28.1 77 24.8 82 82 W 6 9 30.04 1017 10 16 0.00 0.00
4:35 am 04:35 Clear 82 28 76 24.7 82 82 W 7 11 30.03 1017 10 16 0.00 0.00
4:55 am 04:55 Clear 82 27.7 76 24.6 83 83 W 5 7 30.04 1017 10 16 0.00 0.00
5:15 am 05:15 Clear 82 27.8 76 24.4 82 82 W 6 9 30.04 1017 10 16 0.00 0.00
5:35 am 05:35 Clear 82 27.9 76 24.4 81 81 W 6 9 30.04 1017 10 16 0.00 0.00
6:00 am 06:00 Mostly Clear 81 27 75 24 84 84 Calm 30.05 1018 10 16 0.00 0.00
6:54 am 06:54 Mostly Sunny 81 27 75 24 84 84 Calm 30.07 1018 10 16 0.00 0.00
7:55 am 07:55 Mostly Sunny 82 28 77 25 84 84 WNW 6 9 30.06 1018 10 16 0.00 0.00
8:52 am 08:52 Mostly Sunny 84 29 77 25 79 79 NW 8 13 30.07 1018 10 16 0.00 0.00
9:55 am 09:55 Partly Cloudy 88 31 75 24 66 66 WNW 10 17 30.08 1019 10 16 0.00 0.00
10:50 am 10:50 Partly Cloudy 88 31 75 24 66 66 WNW 7 11 30.08 1019 10 16 0.00 0.00
12:54 pm 12:54 Mostly Cloudy 91 33 73 23 56 56 Calm 30.05 1018 10 16 0.00 0.00
1:45 pm 13:45 Mostly Cloudy 93 34 73 23 53 53 Calm 30.05 1018 10 16 0.00 0.00
2:50 pm 14:50 Partly Cloudy 93 34 73 23 53 53 S 3 6 30.03 1017 10 16 0.00 0.00
3:50 pm 15:50 Mostly Cloudy 95 35 75 24 53 53 SSW 7 11 30.02 1017 10 16 0.00 0.00
4:55 pm 16:55 Partly Cloudy 93 34 73 23 53 53 SSW 8 13 30.00 1016 10 16 0.00 0.00
5:50 pm 17:50 Partly Cloudy 93 34 77 25 59 59 SSW 13 20 30.00 1016 10 16 0.00 0.00
6:50 pm 18:50 Mostly Sunny 90 32 77 25 67 67 SSW 10 17 29.99 1016 10 16 0.00 0.00
7:55 pm 19:55 Mostly Sunny 88 31 75 24 66 66 SSW 8 13 30.01 1016 10 16 0.00 0.00
8:55 pm 20:55 Mostly Clear 86 30 75 24 70 70 SW 8 13 29.99 1016 10 16 0.00 0.00
9:50 pm 21:50 Mostly Clear 84 29 75 24 74 74 SW 9 15 29.98 1015 10 16 0.00 0.00
10:15 pm 22:15 Clear 85 29.4 76 24.5 75 75 SW 8 13 29.98 1015 10 16 0.00 0.00
10:35 pm 22:35 Clear 85 29.2 76 24.7 77 77 SW 7 11 29.99 1016 10 16 0.00 0.00
10:55 pm 22:55 Clear 84 29 77 24.8 78 78 SSW 6 9 30.00 1016 10 16 0.00 0.00
11:15 pm 23:15 Clear 84 28.8 77 24.9 79 79 SW 6 9 30.00 1016 10 16 0.00 0.00
11:35 pm 23:35 Clear 83 28.5 77 24.9 81 81 SSW 5 7 30.00 1016 10 16 0.00 0.00
11:55 pm 23:55 Clear 83 28.6 77 24.9 80 80 WSW 3 6 30.01 1016 10 16 0.00 0.00

Powered by AerisWeather